Weather in Kokonao

Indonesia     4°31′59″S   136°33′00″E
temp.,
°C
wind,
m/s
gust,
m/s
humid.,
%
clouds,
%
prec.,
mm/h
press.,
hPa
HPBL,
m
28 january, thu
thu2800:00+24n0195100 0.2 100724
03:00+23nne1196100 0.2 100626
06:00+23nne1193100 0.0 100823
09:00+26s1183100 0.0 1009108
12:00+30s1172100 0.0 1006442
15:00+33s225494 0.1 10051450
18:00+26sw1192100 2.8 100724
21:00+25nw0195100 3.5 100924
29 january, fri
fri2900:00+24n1196100 0.6 100824
03:00+24n1197100 2.2 100724
06:00+24n0197100 0.8 100823
09:00+26ese0191100 0.8 100999
12:00+36ssw114885 0.1 10071549
15:00+29wsw248688 6.1 1006747
18:00+26nw1295100 5.7 100745
21:00+25nw0195100 8.8 101025
30 january, sat
sat3000:00+24wsw1698100 3.3 1009174
03:00+23w14100100 11.9 1008208
06:00+23e1299100 2.3 100983
09:00+28ese1282100 2.3 1010359
12:00+35se1151100 0.0 10081463
15:00+30ssw1380100 3.4 1006730
18:00+26nw1193100 3.2 100824
21:00+24ese019699 4.1 101024
31 january, sun
sun3100:00+24nnw1197100 0.7 101024
03:00+23nw1198100 3.5 100840
06:00+23n1197100 0.3 101024
09:00+28nnw0180100 0.3 1010302
12:00+33sw1252100 0.0 10081389
15:00+31ssw3362100 0.1 1006970
18:00+27ssw1483100 0.5 1008147
21:00+25n0192100 0.6 101024
1 february, mon
mon100:00+25nw0192100 0.0 100924
03:00+24w1195100 0.0 100829
06:00+23nw1195100 0.1 100924
09:00+29w1370100 0.1 1010689
12:00+34sw235063 0.0 10081708
15:00+31sw336172 0.7 10071290
18:00+25nw1195100 4.9 100924
21:00+24ne1296100 7.0 101028